TimeCDT,TemperatureF,Dew PointF,Humidity,Sea Level PressureIn,VisibilityMPH,Wind Direction,Wind SpeedMPH,Gust SpeedMPH,PrecipitationIn,Events,Conditions,WindDirDegrees,DateUTC
12:15 AM,56.3,54.1,92,29.96,7.0,North,10.4,-,0.05,Rain-Thunderstorm,Rain,10,2013-10-03 05:15:00
12:35 AM,56.1,53.8,92,29.92,3.0,East,10.4,19.6,0.29,Rain-Thunderstorm,Heavy Thunderstorms and Rain,100,2013-10-03 05:35:00
12:55 AM,56.3,54.3,93,29.92,3.0,East,8.1,12.7,0.57,Rain-Thunderstorm,Heavy Thunderstorms and Rain,90,2013-10-03 05:55:00
1:15 AM,56.3,54.5,94,29.90,4.0,ESE,9.2,-,0.13,Rain-Thunderstorm,Heavy Thunderstorms and Rain,120,2013-10-03 06:15:00
1:35 AM,55.9,54.7,96,29.90,5.0,SSE,9.2,-,0.19,Rain-Thunderstorm,Heavy Thunderstorms and Rain,150,2013-10-03 06:35:00
1:55 AM,56.3,54.9,95,29.91,7.0,SE,10.4,-,0.28,Rain,Rain,140,2013-10-03 06:55:00
2:15 AM,56.3,54.9,95,29.87,7.0,East,11.5,-,0.04,Rain,Rain,100,2013-10-03 07:15:00
2:35 AM,55.9,54.7,96,29.85,10.0,ESE,15.0,18.4,0.05,Rain,Light Rain,120,2013-10-03 07:35:00
2:55 AM,55.8,54.7,96,29.88,10.0,SE,9.2,-,0.05,,Scattered Clouds,130,2013-10-03 07:55:00
3:15 AM,55.8,54.7,96,29.88,10.0,Calm,Calm,-,N/A,,Scattered Clouds,0,2013-10-03 08:15:00
3:35 AM,55.9,54.7,96,29.88,10.0,Calm,Calm,-,N/A,,Mostly Cloudy,0,2013-10-03 08:35:00
3:55 AM,55.9,54.7,96,29.89,10.0,East,3.5,-,N/A,,Overcast,100,2013-10-03 08:55:00
4:15 AM,55.8,54.7,96,29.89,10.0,East,3.5,-,N/A,,Overcast,80,2013-10-03 09:15:00
4:35 AM,55.8,54.7,96,29.88,10.0,NNE,4.6,-,N/A,,Scattered Clouds,20,2013-10-03 09:35:00
4:55 AM,55.8,54.7,96,29.88,10.0,NNE,3.5,-,N/A,,Clear,20,2013-10-03 09:55:00
5:15 AM,55.6,54.5,96,29.90,10.0,Calm,Calm,-,N/A,,Scattered Clouds,0,2013-10-03 10:15:00
5:35 AM,55.8,54.5,96,29.90,10.0,Calm,Calm,-,N/A,,Scattered Clouds,0,2013-10-03 10:35:00
5:55 AM,55.4,54.1,96,29.90,10.0,ENE,4.6,-,N/A,,Scattered Clouds,60,2013-10-03 10:55:00
6:15 AM,55.0,54.0,96,29.90,10.0,ENE,5.8,-,N/A,,Clear,60,2013-10-03 11:15:00
6:35 AM,54.7,53.6,96,29.91,10.0,ENE,5.8,-,N/A,,Clear,70,2013-10-03 11:35:00
6:55 AM,54.5,53.6,97,29.91,10.0,East,5.8,-,N/A,,Clear,80,2013-10-03 11:55:00
7:15 AM,54.5,53.6,97,29.91,10.0,ENE,6.9,-,N/A,,Clear,60,2013-10-03 12:15:00
7:35 AM,54.7,53.6,96,29.90,10.0,NNE,4.6,-,N/A,,Clear,30,2013-10-03 12:35:00
7:55 AM,54.7,53.6,96,29.89,10.0,NE,5.8,-,N/A,,Clear,40,2013-10-03 12:55:00
8:15 AM,54.9,53.8,96,29.90,10.0,ENE,5.8,-,N/A,,Clear,60,2013-10-03 13:15:00
8:35 AM,55.0,53.8,96,29.90,10.0,ENE,6.9,-,N/A,,Clear,70,2013-10-03 13:35:00
8:55 AM,55.4,54.0,95,29.89,10.0,NNE,4.6,-,N/A,,Scattered Clouds,30,2013-10-03 13:55:00
9:15 AM,55.4,53.6,94,29.88,10.0,NE,8.1,-,N/A,,Scattered Clouds,40,2013-10-03 14:15:00
9:35 AM,55.4,53.1,92,29.89,10.0,ENE,6.9,-,N/A,,Scattered Clouds,60,2013-10-03 14:35:00
9:55 AM,56.3,53.2,89,29.89,10.0,ENE,6.9,-,N/A,,Clear,60,2013-10-03 14:55:00
10:15 AM,56.7,53.2,88,29.90,10.0,NE,6.9,-,N/A,,Clear,50,2013-10-03 15:15:00
10:35 AM,57.2,53.1,86,29.90,10.0,NE,8.1,-,N/A,,Scattered Clouds,50,2013-10-03 15:35:00
10:55 AM,57.6,53.1,85,29.90,10.0,ENE,8.1,-,N/A,,Scattered Clouds,60,2013-10-03 15:55:00
11:15 AM,58.3,53.4,84,29.90,10.0,NE,5.8,-,N/A,,Scattered Clouds,50,2013-10-03 16:15:00
11:35 AM,58.6,53.2,82,29.89,10.0,NE,6.9,-,N/A,,Scattered Clouds,50,2013-10-03 16:35:00
11:55 AM,58.6,53.1,82,29.89,10.0,NE,6.9,-,N/A,,Scattered Clouds,50,2013-10-03 16:55:00
12:15 PM,59.4,53.8,82,29.88,10.0,NE,6.9,-,N/A,,Clear,50,2013-10-03 17:15:00
12:35 PM,59.5,54.0,82,29.88,10.0,NNE,4.6,-,N/A,,Scattered Clouds,30,2013-10-03 17:35:00
12:55 PM,59.5,54.5,83,29.88,10.0,NE,3.5,-,N/A,,Drizzle,40,2013-10-03 17:55:00
1:15 PM,59.9,54.7,83,29.88,10.0,NE,4.6,-,N/A,,Mostly Cloudy,50,2013-10-03 18:15:00
1:35 PM,59.7,55.2,85,29.88,10.0,ENE,3.5,-,N/A,Rain,Rain,60,2013-10-03 18:35:00
1:55 PM,59.4,55.4,87,29.89,7.0,North,3.5,-,0.02,Rain,Rain,350,2013-10-03 18:55:00
2:35 PM,59.4,56.3,90,29.88,10.0,East,5.8,-,N/A,,Drizzle,90,2013-10-03 19:35:00
2:55 PM,59.0,56.1,90,29.86,10.0,ENE,11.5,-,0.01,Rain,Light Rain,70,2013-10-03 19:55:00
3:15 PM,58.5,55.9,91,29.83,10.0,NE,10.4,-,N/A,Rain,Light Rain,40,2013-10-03 20:15:00
3:35 PM,58.8,56.1,91,29.84,10.0,ENE,6.9,-,0.01,Rain,Light Rain,60,2013-10-03 20:35:00
3:55 PM,59.0,55.9,90,29.83,10.0,ENE,5.8,-,0.01,,Mostly Cloudy,60,2013-10-03 20:55:00
4:15 PM,59.4,55.9,88,29.84,10.0,NNE,3.5,-,N/A,,Overcast,20,2013-10-03 21:15:00
4:35 PM,59.5,55.6,87,29.86,10.0,Calm,Calm,-,N/A,,Overcast,0,2013-10-03 21:35:00
4:55 PM,59.7,56.1,88,29.88,10.0,North,4.6,-,N/A,,Drizzle,350,2013-10-03 21:55:00
5:15 PM,59.2,56.5,91,29.88,10.0,North,4.6,-,N/A,,Light Drizzle,350,2013-10-03 22:15:00
5:35 PM,59.0,56.5,91,29.88,10.0,North,8.1,-,N/A,,Light Drizzle,350,2013-10-03 22:35:00
5:55 PM,59.0,56.3,91,29.88,10.0,North,6.9,-,N/A,,Overcast,350,2013-10-03 22:55:00
6:15 PM,58.6,56.3,92,29.87,10.0,North,9.2,-,N/A,,Overcast,360,2013-10-03 23:15:00
6:35 PM,59.0,55.9,90,29.88,10.0,North,6.9,-,N/A,Rain,Rain,10,2013-10-03 23:35:00
6:55 PM,58.5,56.1,92,29.88,7.0,North,8.1,-,0.01,,Light Drizzle,10,2013-10-03 23:55:00
7:15 PM,58.5,56.1,92,29.88,7.0,NNE,8.1,-,0.01,,Heavy Drizzle,20,2013-10-04 00:15:00
7:35 PM,58.3,56.3,93,29.88,7.0,NNE,8.1,-,0.03,,Drizzle,20,2013-10-04 00:35:00
7:55 PM,58.3,56.5,94,29.88,10.0,NNE,6.9,-,0.03,,Drizzle,20,2013-10-04 00:55:00
8:15 PM,58.3,56.5,94,29.88,10.0,NNE,9.2,-,0.01,,Drizzle,20,2013-10-04 01:15:00
8:35 PM,58.1,56.5,94,29.89,7.0,NNE,8.1,-,0.02,,Light Drizzle,20,2013-10-04 01:35:00
8:55 PM,58.1,56.3,94,29.89,5.0,NNE,8.1,-,0.02,,Drizzle,20,2013-10-04 01:55:00
9:15 PM,57.6,56.3,96,29.89,4.0,North,5.8,-,0.05,Rain,Heavy Rain,10,2013-10-04 02:15:00
9:35 PM,57.6,56.3,96,29.89,7.0,NNE,8.1,-,0.05,,Light Drizzle,20,2013-10-04 02:35:00
9:55 PM,57.7,56.5,96,29.89,10.0,NNE,5.8,-,0.05,Rain,Light Rain,30,2013-10-04 02:55:00
10:15 PM,57.7,56.5,96,29.90,10.0,NNE,6.9,-,N/A,,Overcast,30,2013-10-04 03:15:00
10:35 PM,58.1,56.7,95,29.90,10.0,NNE,4.6,-,N/A,,Overcast,20,2013-10-04 03:35:00
11:35 PM,58.1,57.0,96,29.91,5.0,North,5.8,-,N/A,,Overcast,360,2013-10-04 04:35:00
11:55 PM,58.1,56.8,96,29.91,5.0,North,5.8,-,N/A,,Overcast,360,2013-10-04 04:55:00